Location: River House Observatory
(37.8577°N, 76.3548°W)
Time: 06:35:21
(UTC-04:00)

Hubble Space Telescope - Visible Passes

Search period start: 20 April 2018 00:00
Search period end: 30 April 2018 00:00
Orbit: 537 x 541 km, 28.5° (Epoch: 19 April)

Date Brightness Start Highest point End Pass type
(mag) Time Alt. Az. Time Alt. Az. Time Alt. Az.
25 Apr 3.1 21:29:19 10° SSW 21:29:53 12° SSW 21:29:53 12° SSW visible
26 Apr 2.6 21:18:35 10° SSW 21:20:37 16° S 21:20:37 16° S visible
27 Apr 2.3 21:07:57 10° SW 21:10:53 19° S 21:11:14 18° SSE visible
28 Apr 2.3 20:57:24 10° SW 21:00:28 20° S 21:01:43 18° SSE visible
29 Apr 2.3 20:46:54 10° SW 20:50:04 21° S 20:52:07 15° SE visible
